Location: Bacharowice
(49.9333°N, 19.5833°E)
Time: 02:05:21
(UTC+00:00)

Cosmos 372 Rocket - Pass Details

Date: 11 May 2021
Orbit: 738 x 768 km, 74.1° (Epoch: 24 June)

Event Time Altitude Azimuth Distance (km) Brightness Sun altitude
Exits shadow 21:27:04 37° 128° (SE) 1,132 4.4 -20.2°
Maximum altitude 21:27:52 40° 104° (ESE) 1,081 4.5 -20.2°
Drops below altitude 10° 21:32:36 10° 36° (NE) 2,256 6.9 -20.4°
Sets 21:35:04 0° 29° (NNE) 3,185 7.9 -20.5°
